Weather reports worldwide

Advertisment
F3, Netherlands (6239): temperature & dewpoint: 14.10.2019 04:00:00 - 20.10.2019 04:00:00 (CEST)F3, Netherlands (6239): wind speed & gusts: 14.10.2019 04:00:00 - 20.10.2019 04:00:00 (CEST)F3, Netherlands (6239): wind direction: 14.10.2019 04:00:00 - 20.10.2019 04:00:00 (CEST)F3, Netherlands (6239): reduced air pressure: 14.10.2019 04:00:00 - 20.10.2019 04:00:00 (CEST)F3, Netherlands (6239): visibility: 14.10.2019 04:00:00 - 20.10.2019 04:00:00 (CEST)
Date & Time tt [°C] td [°C] ff [km/h] ff [kn] fx [km/h] fx [kn] dd ppp [hPa] vv [km]
20.10.2019 04:00:00 -81,6 -81,6 41 22 40 21 SW 1003,0 10
20.10.2019 03:00:00 -77,0 -77,0 41 22 40 21 WSW 1002,2 10
20.10.2019 02:00:00 - - 42 23 43 23 WSW 1001,7 10
20.10.2019 01:00:00 -77,0 -76,2 42 23 43 23 WSW 1001,3 10
20.10.2019 00:00:00 -78,8 -78,8 44 24 43 23 WSW 1001,3 10
19.10.2019 23:00:00 -77,3 - 42 23 43 23 SW 1000,8 10
19.10.2019 22:00:00 -69,3 -38,7 28 15 36 19 WSW 1000,5 10
19.10.2019 21:00:00 -81,2 -81,2 48 26 54 29 WSW 1000,3 10
19.10.2019 20:00:00 - 7,9 35 19 36 19 SW 999,4 10
19.10.2019 19:00:00 - 8,5 41 22 40 21 SW 999,1 10
19.10.2019 18:00:00 - 9,5 28 15 36 19 S 999,0 10
19.10.2019 17:00:00 - 9,6 35 19 36 19 SSW 998,7 10
19.10.2019 16:00:00 - 9,6 26 14 29 16 SSW 998,7 10
19.10.2019 15:00:00 - 8,8 22 12 29 16 SW 998,6 10
19.10.2019 14:00:00 - 9,6 28 15 36 19 S 998,6 10
19.10.2019 13:00:00 - 9,6 37 20 40 21 SSW 998,6 10
19.10.2019 12:00:00 - 8,9 37 20 40 21 SSW 998,4 10
19.10.2019 11:00:00 - 9,2 37 20 43 23 SSW 998,3 10
19.10.2019 10:00:00 - 9,6 37 20 47 25 SW 998,0 10
19.10.2019 09:00:00 - 8,2 37 20 40 21 SW 997,8 10
19.10.2019 08:00:00 - 9,9 42 23 47 25 SSW 997,6 5
19.10.2019 07:00:00 - 9,1 41 22 43 23 SW 997,6 10
19.10.2019 06:00:00 - 8,6 41 22 47 25 SW 997,5 10
19.10.2019 05:00:00 - 8,8 50 27 50 27 SW 997,4 10
19.10.2019 04:00:00 - 9,0 50 27 50 27 SW 997,4 10
19.10.2019 03:00:00 - 9,4 52 28 54 29 SW 997,6 10
19.10.2019 02:00:00 - - 54 29 58 31 SW 997,6 10
19.10.2019 01:00:00 - - 55 30 61 33 WSW 997,6 10
19.10.2019 00:00:00 - - 59 32 61 33 WSW 997,1 10
18.10.2019 23:00:00 - - 59 32 58 31 WSW 996,7 10
18.10.2019 22:00:00 - - 57 31 54 29 WSW 996,5 10
18.10.2019 21:00:00 - - 54 29 61 33 SW 996,5 10
18.10.2019 20:00:00 - - 61 33 61 33 WSW 996,3 10
18.10.2019 19:00:00 - - 61 33 68 37 WSW 995,8 10
18.10.2019 18:00:00 - - 61 33 68 37 WSW 994,6 10
18.10.2019 17:00:00 - - 55 30 58 31 WSW 994,2 10
18.10.2019 16:00:00 - - 37 20 58 31 SW 993,9 10
18.10.2019 15:00:00 - - 41 22 47 25 S 993,9 7
18.10.2019 14:00:00 - - 57 31 61 33 SSE 994,8 1,7
18.10.2019 13:00:00 - - 44 24 47 25 SSE 996,1 10
18.10.2019 12:00:00 - - 37 20 40 21 S 997,3 10
18.10.2019 11:00:00 - - 16 9 29 16 SSW 998,5 10
18.10.2019 10:00:00 - - 29 16 32 18 SSE 999,0 10
18.10.2019 09:00:00 - 9,6 39 21 47 25 S 999,8 10
18.10.2019 08:00:00 - -46,9 35 19 40 21 SSE 999,7 10
18.10.2019 07:00:00 - 10,0 39 21 43 23 SSE 1000,4 10
18.10.2019 06:00:00 - 11,2 41 22 40 21 S 1001,3 10
18.10.2019 05:00:00 - 11,2 39 21 40 21 SSE 1002,1 10
18.10.2019 04:00:00 - 10,5 35 19 43 23 S 1002,7 10
18.10.2019 03:00:00 - 11,0 46 25 43 23 S 1003,3 10
18.10.2019 02:00:00 - 11,1 37 20 43 23 S 1003,9 10
18.10.2019 01:00:00 - -49,0 35 19 47 25 S 1004,7 10
18.10.2019 00:00:00 - 9,6 37 20 43 23 S 1004,9 10
17.10.2019 23:00:00 - 10,4 31 17 32 18 S 1005,6 10
17.10.2019 22:00:00 13,0 9,4 15 8 25 14 SSE 1005,9 10
17.10.2019 21:00:00 12,6 10,4 13 7 29 16 S 1006,0 10
17.10.2019 20:00:00 - 9,4 16 9 25 14 SSE 1006,1 10
17.10.2019 19:00:00 - 6,8 26 14 25 14 S 1006,4 10
17.10.2019 18:00:00 - 4,8 18 10 22 12 S 1006,5 10
17.10.2019 17:00:00 - 5,2 21 11 32 18 SSW 1006,8 10
17.10.2019 16:00:00 - 5,9 28 15 32 18 SW 1007,0 10
17.10.2019 15:00:00 - 6,2 28 15 32 18 SW 1006,9 10
17.10.2019 14:00:00 - 6,4 28 15 32 18 WSW 1006,8 10
17.10.2019 13:00:00 -89,0 -89,0 34 18 40 21 W 1007,2 10
17.10.2019 12:00:00 -88,7 -88,7 37 20 36 19 WSW 1007,1 10
17.10.2019 11:00:00 -88,2 -88,2 37 20 40 21 W 1006,6 10
17.10.2019 10:00:00 -81,9 -81,9 37 20 35 19 WSW 1006,1 10
17.10.2019 09:00:00 -39,6 -39,6 34 18 35 19 WSW 1005,2 10
17.10.2019 08:00:00 - -12,3 29 16 33 18 WSW 1004,2 10
17.10.2019 07:00:00 - -50,4 29 16 35 19 W 1003,7 10
17.10.2019 06:00:00 - 7,9 31 17 36 19 W 1003,5 10
17.10.2019 05:00:00 - 8,7 35 19 36 19 W 1003,3 10
17.10.2019 04:00:00 - 9,9 41 22 40 21 W 1002,9 10
17.10.2019 03:00:00 - 9,9 39 21 40 21 W 1002,4 10
17.10.2019 02:00:00 - 10,4 39 21 40 21 W 1001,9 10
17.10.2019 01:00:00 - 12,5 28 15 29 16 WSW 1001,6 10
17.10.2019 00:00:00 - 13,3 28 15 32 18 WSW 1001,3 10
16.10.2019 23:00:00 - 13,7 29 16 40 21 SW 1001,2 10
16.10.2019 22:00:00 - 14,5 42 23 50 27 S 1000,8 10
16.10.2019 21:00:00 - 13,5 54 29 54 29 SSE 1000,8 10
16.10.2019 20:00:00 - 12,9 52 28 54 29 SSE 1001,3 8
16.10.2019 19:00:00 - 12,2 48 26 47 25 SSE 1001,9 10
16.10.2019 18:00:00 - 11,8 42 23 43 23 SSE 1002,4 10
16.10.2019 17:00:00 - 11,2 41 22 43 23 SSE 1002,8 10
16.10.2019 16:00:00 - 11,5 44 24 47 25 S 1003,3 10
16.10.2019 15:00:00 - 11,1 35 19 36 19 S 1003,6 10
16.10.2019 14:00:00 - 10,4 37 20 36 19 SSW 1004,0 10
16.10.2019 13:00:00 - 11,2 31 17 32 18 S 1004,4 10
16.10.2019 12:00:00 14,9 11,4 29 16 40 21 S 1004,4 10
16.10.2019 11:00:00 14,7 11,7 29 16 29 16 S 1004,5 10
16.10.2019 10:00:00 14,4 11,1 26 14 29 16 S 1004,6 10
16.10.2019 09:00:00 14,0 10,4 22 12 25 14 S 1004,7 10
16.10.2019 08:00:00 13,7 10,0 24 13 25 14 S 1004,5 10
16.10.2019 07:00:00 13,9 9,2 24 13 25 14 SW 1004,4 10
16.10.2019 06:00:00 13,8 8,4 21 11 25 14 SW 1004,6 10
16.10.2019 05:00:00 13,8 8,6 26 14 25 14 SW 1004,6 10
16.10.2019 04:00:00 13,1 10,0 18 10 29 16 SW 1004,8 10
16.10.2019 03:00:00 - 10,3 18 10 25 14 WSW 1004,8 10
16.10.2019 02:00:00 - 10,7 26 14 32 18 WSW 1004,8 10
16.10.2019 01:00:00 - 10,1 28 15 29 16 SW 1004,7 10
16.10.2019 00:00:00 - 10,2 34 18 32 18 WSW 1004,8 10
15.10.2019 23:00:00 - 10,7 29 16 32 18 WSW 1004,7 10
15.10.2019 22:00:00 - 10,6 29 16 32 18 WSW 1004,3 10
15.10.2019 21:00:00 - 10,8 31 17 32 18 WSW 1003,9 10
15.10.2019 20:00:00 - 11,3 34 18 36 19 WSW 1003,8 10
15.10.2019 19:00:00 - 11,5 39 21 43 23 WSW 1003,2 10
15.10.2019 18:00:00 - 11,4 44 24 47 25 WSW 1002,6 10
15.10.2019 17:00:00 - 12,1 42 23 47 25 SW 1001,9 10
15.10.2019 16:00:00 - 11,3 44 24 54 29 SW 1001,9 10
15.10.2019 15:00:00 - 11,5 48 26 54 29 SSW 1001,8 10
15.10.2019 14:00:00 - 11,6 52 28 50 27 SW 1001,3 10
15.10.2019 13:00:00 - 11,8 46 25 54 29 SW 1001,1 10
15.10.2019 12:00:00 - 12,1 46 25 79 43 SSW 1001,2 10
15.10.2019 11:00:00 - 12,7 48 26 50 27 SSW 1000,7 10
15.10.2019 10:00:00 - 13,8 50 27 50 27 SSW 1000,7 10
15.10.2019 09:00:00 - 13,9 41 22 40 21 S 1000,9 10
15.10.2019 08:00:00 - 14,1 37 20 40 21 S 1000,6 10
15.10.2019 07:00:00 - 14,7 34 18 32 18 S 1000,5 9
15.10.2019 06:00:00 - 14,6 34 18 32 18 S 1000,8 9
15.10.2019 05:00:00 - 14,4 35 19 36 19 SSE 1001,3 10
15.10.2019 04:00:00 - 14,3 41 22 40 21 SE 1002,3 10
15.10.2019 03:00:00 - 14,0 46 25 50 27 ESE 1001,8 10
15.10.2019 02:00:00 15,2 13,8 44 24 54 29 E 1001,8 10
15.10.2019 01:00:00 15,3 13,1 54 29 54 29 ESE 1004,2 10
15.10.2019 00:00:00 15,0 11,7 50 27 50 27 ESE 1005,4 10
14.10.2019 23:00:00 14,3 12,2 48 26 50 27 E 1005,7 7
14.10.2019 22:00:00 14,5 9,2 48 26 50 27 ESE 1007,4 10
14.10.2019 21:00:00 13,8 11,1 39 21 40 21 E 1008,3 10
14.10.2019 20:00:00 13,3 9,0 44 24 43 23 ESE 1009,3 10
14.10.2019 19:00:00 14,0 9,7 29 16 32 18 ESE 1009,0 10
14.10.2019 18:00:00 13,7 10,5 26 14 25 14 ESE 1009,8 10
14.10.2019 17:00:00 13,8 10,7 18 10 36 19 - 1010,4 10
14.10.2019 16:00:00 13,9 9,5 9 5 14 8 S 1011,5 10
14.10.2019 15:00:00 13,9 9,6 13 7 14 8 S 1011,5 10
14.10.2019 14:00:00 13,7 9,7 15 8 18 10 SSW 1012,2 10
14.10.2019 13:00:00 13,6 9,8 16 9 18 10 SSW 1012,4 10
14.10.2019 12:00:00 13,6 9,2 13 7 14 8 SW 1012,3 10
14.10.2019 11:00:00 13,5 8,8 15 8 22 12 SW 1012,2 10
14.10.2019 10:00:00 13,5 9,3 18 10 29 16 SW 1012,6 10
14.10.2019 09:00:00 12,9 9,8 5 3 14 8 SSW 1011,7 10
14.10.2019 08:00:00 12,4 10,8 11 6 29 16 WSW 1010,4 10
14.10.2019 07:00:00 13,0 10,0 16 9 22 12 W 1009,9 10
14.10.2019 06:00:00 13,1 9,2 26 14 25 14 W 1009,1 10
14.10.2019 05:00:00 13,0 9,1 29 16 29 16 W 1008,3 10
14.10.2019 04:00:00 13,0 9,0 31 17 36 19 W 1007,9 10

tt = temperature
td = dewpoint
ff = wind speed
fx = gusts
dd = wind direction
ppp = reduced air pressure
vv = visibility

Next stations